STARLINK-3996, 52617

Orbit data source: Space-Track

STARLINK-3996, 52617 is a payload satellite owned by SpaceX/Seattle (US) in LEO that was launched on Sat, 14 May 2022 UTC via an FALCON 9 launch vehicle from the Air Force Eastern Test Range (AFETR). Payload-class satellites include a variety of spacecraft equipped with specific instruments for various scientific and technological missions. These include communications satellites like Starlink; space stations such as the ISS; scientific satellites like the Hubble; Earth observation satellites from companies like Planet Labs, Umbra, and HawkEye 360; GPS; miniature CubeSats for education and research; and military/defense satellites.

Loading next visibility...
Identifier
52617, 2022-052V
Orbit
LEO
Country
Flag of USUS
Related business
Manufacturer
SpaceX/Seattle
Mission
Operational Commercial Communications
Bus & Motor
STARLINK, Unknown motor
Mass
297 kg wet, ~275 kg dry
Launch date (UTC)
2022-05-14 (4 years ago)
Launch vehicle
FALCON 9
Launch site
Air Force Eastern Test Range (AFETR)
Object type
Payload
Rocket body
Debris
Shape & HBR
Box + 1 Pan, 10.1 m
Radar Cross Section
13.562 m², Large (>1 m²)

Expand to show TLE details & history
Last TLE update: 2 days ago

TLE from 2 days ago
0 STARLINK-3996
1 52617U 22052V   26171.28468833 -.00001182  00000-0 -56164-4 0  9991
2 52617  53.1587 168.4406 0001288  83.4187 276.6951 15.08830772226479
Epoch: 2026-06-20T06:49Z
TLE epoch observation values (Epoch: 2026-06-20T06:49:57.071Z)
Latitude
-0.00003°
Longitude
157.45127°
Altitude
540.559 km
Speed
7.593 km/s
True Right ascension
11h 13m 45s
True Declination
0° 00' 00"
Sunlit
Object was in daylight at epoch
Visualization orbit readout
Latitude
Unknown
Longitude
Unknown
Altitude
Unknown
Speed
Unknown
Apparent Right ascension
Unknown
Apparent Declination
Unknown
Sunlit
N/A
Visualization observer readout
Local Sidereal Time
23:08:09
Azimuth
Unknown
Elevation
Unknown
Doppler factor
Unknown
Orbital elements
Apogee altitude
540.917 km
Perigee altitude
539.135 km
Semi-major axis
6,918.163 km
Eccentricity
0.00013
Inclination
53.1587°
RAAN
168.4406°
Arg. of periapsis
83.4187°
True anomaly
276.68044°
Mean anomaly
276.6951°
Eccentric anomaly
276.68777°
Mean motion
3.77187 °/min
Orbital period
95.44 mins
BSTAR
-0.000056164
Loading maneuver chart data...
Computing Atmospheric mass density...
Loading historical data...
Loading historical data...
Loading historical data...
Loading historical data...
Loading historical data...
Loading historical data...
Loading historical data...

Documentation

Showing up to 5 results
|